GSAT0207 (GALILEO 15)

Last updated on Mon Dec 15 2025 00:02:41 GMT+0000 (Coordinated Universal Time)

1 41859U 16069A 25347.38504318 .00000000 00000+0 00000+0 0 9990 2 41859 55.3826 106.2323 0002242 321.9482 38.0041 1.70474447 56234
UTC large
Height (km)
Speed (km/s)
/
Latitude / Longitude
Inclination (degrees)
Orbital Period (minutes)
Azimuth
Elevation
Range (km)
Doppler Factor

Next 0 passes for location: London (51.5072 / 0.1276)

Sorry there are no passes over London.